sat.trackr.live / text

‹ back to catalog

STARLINK-32046

NORAD 60198 · 2024-124R

PAYLOAD ACTIVE UNKNOWN

§ Identity

Operator
Country
US
Launch date
2024-07-03
Launch site
AFETR
Launch vehicle
Mass (kg)
RCS (m²)

Purposes: comms

External: N2YO · Heavens-Above · Gunter

§ Orbital elements

Epoch: 2026-05-24T21:24:40.588416Z

Period
94.01 min
Inclination
53.1615°
Eccentricity
0.0001070
Mean motion
15.31702705 rev/d
Perigee alt
470.0 km
Apogee alt
471.5 km
Semi-major
6,848.9 km
B*
2.1424e-5
RAAN
328.4701°
Arg perigee
96.4098°
Mean anomaly
263.7025°
Rev number
10,719

§ Raw data

STARLINK-320461 60198U 24124R   26144.89213644  .00000300  00000+0  21424-4 0  99902 60198  53.1615 328.4701 0001070  96.4098 263.7025 15.31702705107190

JSON: /api/v1/satellites/60198 · /tle

For live sub-satellite position, see the globe view (requires WebGL).

§ Visibility from observer

Set your observer location to see the next 7 days of passes ≥ 10°. The values pass through the URL so the page stays shareable.

No JS? Fill the form by hand. The geolocation button needs JavaScript.